Regional Weather Roundup
Issued by NWS

Home | Current Version | Previous Version | Graphics & Text | Print | Product List | Glossary On
Versions: 1 2 3 4 5 6 7 8 9 10 11 12 13 14 15 16 17 18 19 20 21 22 23 24 25 26 27 28 29 30 31 32 33 34 35 36 37 38 39 40 41 42 43 44 45 46 47 48 49 50
481
ASUS45 KTFX 251910
RWRMT
MONTANA REGIONAL WEATHER ROUNDUP
NATIONAL WEATHER SERVICE GREAT FALLS MT
100 PM MDT THU AUG 25 2016

NOTE: "FAIR" INDICATES FEW OR NO CLOUDS BELOW 12000 FEET WITH NO
SIGNIFICANT WEATHER AND/OR OBSTRUCTIONS TO VISIBILITY.

MTZ001>007-043-252000-
WEST OF THE DIVIDE

CITY           SKY/WX    TMP DP  RH WIND       PRES   REMARKS
KALISPELL      MOSUNNY   67  36  31 E9        30.21F
MISSOULA       SUNNY     68  36  30 S6        30.21F
BUTTE          SUNNY     61  29  29 CALM      30.26F
MULLAN PASS    SUNNY     61  34  36 VRB3      30.30F
DEER LODGE       N/A     64  32  29 E3        30.27F
EUREKA           N/A     66  36  32 W3        30.22F
HAMILTON         N/A     63  37  39 NW5       30.21F
LIBBY            N/A     72  36  26 NW6       30.19F
PLAINS           N/A     74  38  27 CALM      30.19F
RONAN            N/A     69  39  33 SW6       30.25F
$$

MTZ008-052>055-252000-
SOUTHWEST MONTANA

CITY           SKY/WX    TMP DP  RH WIND       PRES   REMARKS
BOZEMAN        SUNNY     62  36  37 CALM      30.25F
DILLON         SUNNY     61  32  33 N6        30.24F
W YELLOWSTONE  SUNNY     59  27  29 N6        30.26F
ENNIS          SUNNY     63  32  31 VRB7      30.29F
THREE FORKS      N/A     64  -6   6 CALM      30.22F
TWIN BRIDGES     N/A     64  32  30 N5        30.21F
$$

MTZ009-010-012-014-046-048-049-054-252000-
EAST SLOPES AND CENTRAL MONTANA

CITY           SKY/WX    TMP DP  RH WIND       PRES   REMARKS
CUT BANK       CLOUDY    66  33  29 W5        30.24F
GREAT FALLS    CLOUDY    66  37  34 VRB6      30.23F
MALMSTROM AFB  SUNNY     64  37  37 SW1       30.24F
HELENA         CLOUDY    67  36  31 CALM      30.23F
CHOTEAU          N/A     68  34  28 N9        30.26F
CONRAD           N/A     68  43  40 NE1       30.24F
$$

MTZ011-013-016-021-045-047-050-051-252000-
NORTH CENTRAL MONTANA

CITY           SKY/WX    TMP DP  RH WIND       PRES   REMARKS
HAVRE            N/A    N/A N/A N/A VRB5      30.21F
LEWISTOWN      SUNNY     65  31  28 VRB3      30.25F
N BAR RANCH      N/A     63  34  34 CALM      30.27F
CHINOOK          N/A     68  43  40 W6        30.20F
$$

MTZ017>020-022>027-061-062-252000-
NORTHEAST MONTANA

CITY           SKY/WX    TMP DP  RH WIND       PRES   REMARKS
GLASGOW        PTSUNNY   69  41  36 W16       30.18F
JORDAN           N/A     70  39  32 VRB6      30.21F
SIDNEY           N/A     70  41  34 NW10      30.17F
WOLF POINT     CLOUDY    71  42  35 NW13      30.18F
POPLAR           N/A     70  45  40 W7G16     30.18F
SCOBEY           N/A     68  38  33 W2        30.15F
$$

MTZ028>42-056>058-252000-
SOUTHCENTRAL AND SOUTHEAST MONTANA

CITY           SKY/WX    TMP DP  RH WIND       PRES   REMARKS
BAKER          PTSUNNY   62  41  46 NW6       30.24F
BILLINGS       MOSUNNY   65  38  36 VRB5      30.25F
LIVINGSTON     SUNNY     65  34  31 MISG      30.24F
MILES CITY     MOSUNNY   67  42  40 SW13G18   30.24F
EKALAKA          N/A     62  40  44 NW6       30.22F
FORSYTH          N/A     63  43  48 CALM      30.25F
LAUREL           N/A     65  37  35 NE2       30.22F
ROUNDUP          N/A     65  37  35 SE2       30.14F
$$

REGIONAL REPORTS...DAKOTAS

CITY           SKY/WX    TMP DP  RH WIND       PRES   REMARKS
WILLISTON      MOSUNNY   74  37  26 W12G18    30.15F
MINOT          MOSUNNY   72  45  37 W18G26    30.11F
DICKINSON      CLOUDY    63  40  42 NW13G21   30.19F
CROSBY           N/A     72  37  28 N7        30.15F
WATFORD CITY     N/A     70  41  35 NW13G22   30.16F
BISMARCK       CLOUDY    67  49  52 W10       30.17F
GRAND FORKS    MOSUNNY   70  48  45 NW17G28   30.03R
FARGO          PTSUNNY   68  53  58 W14       30.06S
BUFFALO SD       N/A     65  42  43 NW13      30.18F
RAPID CITY     PTSUNNY   63  42  46 CALM      30.27F
$$

REGIONAL REPORTS...WYOMING/IDAHO/WASHINGTON

CITY           SKY/WX    TMP DP  RH WIND       PRES   REMARKS
GILLETTE       PTSUNNY   59  37  44 SW7       30.28F
SHERIDAN       CLOUDY    64  39  39 VRB5      30.26F
BUFFALO WY     MOSUNNY   60  38  43 S9        30.30F
CODY           CLOUDY    57  43  58 N7        30.28F
YELLOWSTONE LA   N/A     55  37  50 E6        30.32F
IDAHO FALLS    MOSUNNY   70  35  27 N7        30.17F SMOKE
SALMON         SUNNY     66  37  34 CALM      30.17F
BOISE          SUNNY     76  33  21 CALM      30.10F
SPOKANE        MOSUNNY   78  35  21 VRB6      30.16F
$$

REGIONAL REPORTS...ALBERTA

CITY           SKY/WX    TMP DP  RH WIND       PRES   REMARKS
EDMONTON       LGT RAIN  63  52  67 NW14G20   30.18F
CALGARY        PTSUNNY   61  46  59 N21G33    30.24F
LETHBRIDGE     LGT RAIN  55  50  82 NW9       30.26S
MEDICINE HAT   LGT RAIN  57  52  82 CALM      30.21F
WATERTON GATE    N/A     57  46  67 NE12        N/A
MILK RIVER       N/A     63  43  48 N12         N/A
ONEFOUR          N/A     66  39  37 W8          N/A
$$

REGIONAL REPORTS...SASKATCHEWAN

CITY           SKY/WX    TMP DP  RH WIND       PRES   REMARKS
SWIFT CURRENT  MOSUNNY   63  52  67 W14       30.16F
REGINA         MOSUNNY   70  45  40 N3        30.11F
SASKATOON      PTSUNNY   72  50  46 W6        30.09F
CYPRESS HILLS    N/A     55  45  67 N7          N/A
VAL MARIE        N/A     61  48  63 NW12        N/A
ROCKGLEN         N/A     64  45  48 W10G18      N/A
ASSINIBOIA       N/A     59  55  88 NW12        N/A
$$




USA.gov is the U.S. government's official web portal to all federal, state and local government web resources and services.